Date String (YYYY-MM-DD hh:mm:ss) UTC,Instrument flags,Ambient pressure (hPa),Sample flow (lpm),Bypass flow (lpm),Sample temperature (°C),Ambient temperature (°C),ASC tube jacket temperature (°C),LED temperature (°C),Box temperature (°C),Sample RH (%),Span deviation,Mass concentration (μg/m³),Mass concentration (μg/m³),Mass concentration (μg/m³)
DateTimeUTC,F1_M11,P_M11,Q1_M11,Q2_M11,T1_M11,T2_M11,T3_M11,T4_M11,T5_M11,U1_M11,ZSPAN_M11,X2_M11,X0_M11,X1_M11
2022-07-26 23:00:00,,0828.4,5.00,0.00,30.7,28.0,00.0,39.0,31.8,30.2,0000.0,0009.16,0016.63,0008.15
2022-07-26 23:01:00,,0828.2,5.00,0.00,30.7,28.2,00.0,39.0,31.9,30.5,0000.0,0009.10,0016.46,0008.14
2022-07-26 23:02:00,,0828.2,5.00,0.00,30.7,28.4,00.0,39.0,31.9,31.3,0000.0,0009.14,0017.56,0008.11
2022-07-26 23:03:00,,0828.2,5.00,0.00,30.7,28.5,00.0,39.0,32.0,31.8,0000.0,0009.17,0017.86,0008.11
2022-07-26 23:04:00,,0828.2,5.00,0.00,30.7,28.1,00.0,39.0,31.9,31.8,0000.0,0009.17,0017.79,0008.12
2022-07-26 23:05:00,,0828.1,5.02,0.00,30.6,27.5,00.0,39.0,31.8,31.5,0000.0,0009.14,0018.28,0008.12
2022-07-26 23:06:00,,0828.1,4.99,0.00,30.6,27.3,00.0,39.0,31.8,31.9,0000.0,0009.13,0017.94,0008.13
2022-07-26 23:07:00,,0828.1,5.01,0.00,30.5,27.3,00.0,38.9,31.6,33.2,0000.0,0009.10,0018.81,0008.15
2022-07-26 23:08:00,,0828.1,4.99,0.00,30.4,27.5,00.0,38.9,31.6,32.9,0000.0,0009.10,0019.49,0008.16
2022-07-26 23:09:00,,0828.1,5.00,0.00,30.4,27.6,00.0,38.9,31.6,32.6,0000.0,0009.10,0019.44,0008.17
2022-07-26 23:10:00,,0828.1,5.01,0.00,30.3,27.9,00.0,38.9,31.7,30.3,0000.0,0009.12,0019.19,0008.16
2022-07-26 23:11:00,,0828.1,5.00,0.00,30.3,28.1,00.0,38.9,31.7,30.1,0000.0,0009.12,0018.67,0008.12
2022-07-26 23:12:00,,0828.1,5.00,0.00,30.3,28.2,00.0,38.9,31.8,29.9,0000.0,0009.10,0018.62,0008.08
2022-07-26 23:13:00,,0828.1,4.99,0.00,30.4,28.4,00.0,38.9,31.9,29.5,0000.0,0009.04,0017.74,0008.07
2022-07-26 23:14:00,,0828.0,5.01,0.00,30.4,28.2,00.0,38.9,31.8,29.0,0000.0,0008.98,0016.82,0008.04
2022-07-26 23:15:00,,0828.0,4.99,0.00,30.3,27.5,00.0,38.8,31.7,29.2,0000.0,0008.91,0017.11,0008.00
2022-07-26 23:16:00,,0828.0,5.01,0.00,30.2,27.2,00.0,38.8,31.6,29.6,0000.0,0008.85,0016.39,0007.95
2022-07-26 23:17:00,,0827.9,5.01,0.00,30.1,27.2,00.0,38.8,31.5,30.2,0000.0,0008.79,0015.75,0007.91
2022-07-26 23:18:00,,0827.9,4.99,0.00,30.1,27.4,00.0,38.7,31.4,29.8,0000.0,0008.74,0014.84,0007.87
2022-07-26 23:19:00,,0828.0,5.02,0.00,30.0,27.6,00.0,38.7,31.4,29.7,0000.0,0008.65,0014.05,0007.83
2022-07-26 23:20:00,,0827.8,5.01,0.00,30.0,27.8,00.0,38.7,31.5,30.3,0000.0,0008.61,0013.90,0007.82
2022-07-26 23:21:00,,0827.9,5.00,0.00,30.1,28.0,00.0,38.7,31.6,30.8,0000.0,0008.66,0013.98,0007.87
2022-07-26 23:22:00,,0827.9,5.01,0.00,30.1,28.2,00.0,38.7,31.7,31.1,0000.0,0008.74,0014.18,0007.93
2022-07-26 23:23:00,,0827.9,5.00,0.00,30.1,28.3,00.0,38.7,31.8,31.2,0000.0,0008.83,0014.44,0007.99
2022-07-26 23:24:00,,0827.9,5.00,0.00,30.1,28.2,00.0,38.7,31.8,31.4,0000.0,0008.89,0015.19,0008.03
2022-07-26 23:25:00,,0827.9,5.00,0.00,30.1,27.7,00.0,38.6,31.7,31.4,0000.0,0008.95,0015.30,0008.09
2022-07-26 23:26:00,,0827.9,5.00,0.00,30.0,27.3,00.0,38.6,31.6,32.2,0000.0,0009.05,0015.49,0008.14
2022-07-26 23:27:00,,0827.9,5.00,0.00,29.9,27.3,00.0,38.6,31.4,32.7,0000.0,0009.12,0015.51,0008.18
2022-07-26 23:28:00,,0827.9,4.99,0.00,29.9,27.4,00.0,38.6,31.3,33.5,0000.0,0009.18,0015.90,0008.24
2022-07-26 23:29:00,,0827.9,5.00,0.00,29.9,27.6,00.0,38.5,31.4,32.9,0000.0,0009.26,0016.41,0008.29
2022-07-26 23:30:00,,0827.9,5.01,0.00,29.9,27.8,00.0,38.5,31.5,32.7,0000.0,0009.35,0016.62,0008.33
2022-07-26 23:31:00,,0827.9,5.00,0.00,29.9,28.0,00.0,38.5,31.6,32.9,0000.0,0009.45,0017.01,0008.38
2022-07-26 23:32:00,,0828.0,5.00,0.00,29.9,28.2,00.0,38.5,31.6,32.8,0000.0,0009.50,0017.53,0008.40
2022-07-26 23:33:00,,0828.0,4.99,0.00,29.9,28.3,00.0,38.6,31.7,32.5,0000.0,0009.50,0017.50,0008.41
2022-07-26 23:34:00,,0827.9,5.00,0.00,29.9,28.3,00.0,38.5,31.7,32.6,0000.0,0009.46,0017.45,0008.41
2022-07-26 23:35:00,,0827.9,5.00,0.00,29.9,27.7,00.0,38.5,31.6,32.6,0000.0,0009.46,0017.07,0008.43
2022-07-26 23:36:00,,0828.0,5.00,0.00,29.9,27.3,00.0,38.5,31.5,33.2,0000.0,0009.47,0016.70,0008.44
2022-07-26 23:37:00,,0827.9,4.99,0.00,29.8,27.2,00.0,38.4,31.4,33.4,0000.0,0009.43,0016.27,0008.44
2022-07-26 23:38:00,,0827.9,5.00,0.00,29.7,27.3,00.0,38.4,31.3,33.2,0000.0,0009.43,0015.89,0008.47
2022-07-26 23:39:00,,0827.9,5.00,0.00,29.7,27.5,00.0,38.4,31.3,33.5,0000.0,0009.46,0015.61,0008.49
2022-07-26 23:40:00,,0827.9,4.99,0.00,29.7,27.7,00.0,38.4,31.4,33.9,0000.0,0009.46,0014.82,0008.49
2022-07-26 23:41:00,,0827.8,5.00,0.00,29.7,27.9,00.0,38.4,31.5,33.7,0000.0,0009.49,0015.57,0008.50
2022-07-26 23:42:00,,0828.0,5.00,0.00,29.8,28.1,00.0,38.4,31.6,33.8,0000.0,0009.53,0016.34,0008.49
2022-07-26 23:43:00,,0828.0,5.00,0.00,29.8,28.3,00.0,38.4,31.6,33.7,0000.0,0009.53,0015.97,0008.47
2022-07-26 23:44:00,,0827.9,5.00,0.00,29.8,28.3,00.0,38.4,31.7,33.6,0000.0,0009.51,0015.98,0008.46
2022-07-26 23:45:00,,0827.9,5.00,0.00,29.8,27.7,00.0,38.4,31.6,33.4,0000.0,0009.57,0016.09,0008.47
2022-07-26 23:46:00,,0828.0,4.99,0.00,29.7,27.3,00.0,38.3,31.5,33.5,0000.0,0009.61,0016.18,0008.47
2022-07-26 23:47:00,,0827.9,5.01,0.00,29.7,27.2,00.0,38.3,31.4,33.4,0000.0,0009.65,0016.38,0008.48
2022-07-26 23:48:00,,0827.8,4.99,0.00,29.6,27.3,00.0,38.3,31.3,33.4,0000.0,0009.70,0016.75,0008.48
2022-07-26 23:49:00,,0828.1,5.00,0.00,29.6,27.4,00.0,38.3,31.3,32.9,0000.0,0009.73,0018.25,0008.46
2022-07-26 23:50:00,,0827.9,4.99,0.00,29.6,27.6,00.0,38.3,31.4,33.3,0000.0,0009.71,0018.75,0008.46
2022-07-26 23:51:00,,0827.9,5.00,0.00,29.6,27.9,00.0,38.3,31.4,33.4,0000.0,0009.76,0020.09,0008.48
2022-07-26 23:52:00,,0827.8,5.00,0.00,29.7,28.1,00.0,38.3,31.5,33.4,0000.0,0009.77,0019.69,0008.49
2022-07-26 23:53:00,,0827.8,5.00,0.00,29.7,28.3,00.0,38.3,31.6,33.1,0000.0,0009.74,0018.75,0008.51
2022-07-26 23:54:00,,0827.9,5.00,0.00,29.7,28.4,00.0,38.4,31.7,33.6,0000.0,0009.71,0019.49,0008.53
2022-07-26 23:55:00,,0827.8,4.99,0.00,29.8,28.5,00.0,38.4,31.7,33.3,0000.0,0009.72,0019.75,0008.55
2022-07-26 23:56:00,,0827.9,4.99,0.00,29.8,28.0,00.0,38.3,31.6,33.4,0000.2,0009.69,0020.64,0008.58
2022-07-26 23:57:00,,0827.9,5.00,0.00,29.7,27.4,00.0,38.3,31.5,34.2,0000.3,0009.65,0021.07,0008.59
2022-07-26 23:58:00,,0827.9,5.01,0.00,29.7,27.2,00.0,38.3,31.4,35.3,-000.1,0009.63,0020.84,0008.59
2022-07-26 23:59:00,,0827.9,4.99,0.00,29.8,27.3,00.0,38.3,31.4,34.8,-000.1,0009.61,0020.47,0008.59
